{"data":{"norad_id":61622,"epoch":"2026-09-21T18:08:46.328064Z","epoch_age_seconds":83467,"freshness":"FRESH","line1":"1 61622U 24191B   26264.75609176  .00000472  00000+0  26666-4 0  9997","line2":"2 61622  43.0016 127.1031 0001421 275.6384  84.4306 15.27578388107525","mean_motion":15.27578388,"eccentricity":0.0001421,"inclination_deg":43.0016,"raan_deg":127.1031,"arg_perigee_deg":275.6384,"mean_anomaly_deg":84.4306,"bstar":2.6666e-5,"rev_number":10752,"period_min":94.266848190052,"perigee_km":482.07894772166,"apogee_km":484.02889818196,"semimajor_km":6861.1909229518,"source":"CELESTRAK","updated_at":"2026-09-22T09:00:49.394774Z"}}